Temperature
14 14 14 13 13 13 13 12 12 12 12 12 12 12 12 12 12 12 12 12 12 12 12 13 13 13 13 14 14 14 14 14 14 15 15 15 15 16 16 16 16 16 16
15 14 14 14 13 13 13 13 12 12 12 12 12 12 12 12 12 12 12 12 12 12 12 13 13 13 13 13 14 14 14 14 14 15 15 15 15 15 15 16 16 15 16
15 14 14 14 13 13 13 13 12 12 12 12 12 12 12 12 12 12 12 12 12 12 12 13 13 13 13 13 13 14 14 14 14 14 15 15 15 15 15 15 15 15 15
15 14 14 14 13 13 13 13 13 12 12 12 12 12 12 12 12 12 12 12 12 12 12 12 13 13 13 13 13 14 14 14 14 14 14 14 14 15 15 15 15 15 14
15 15 14 14 14 13 13 13 13 13 12 12 12 12 12 12 12 12 12 12 12 12 12 12 13 13 13 13 13 13 14 14 14 14 14 14 14 14 14 14 14 14 14
15 15 14 14 14 14 13 13 13 13 13 12 12 12 12 12 12 12 12 12 12 12 12 12 12 13 13 13 13 13 13 13 14 14 14 14 14 14 14 14 14 14 14
15 15 15 14 14 14 14 13 13 13 13 12 12 12 12 12 12 12 12 12 12 12 12 12 12 12 13 13 13 13 13 13 13 14 14 14 14 14 14 14 14 14 14
16 15 15 15 14 14 14 13 13 13 13 12 12 12 12 12 12 12 12 12 12 12 12 12 12 12 13 12 13 13 13 13 13 13 13 14 14 14 14 14 14 14 13
16 15 15 15 14 14 14 13 13 13 13 13 12 12 12 12 12 12 12 12 12 12 12 12 12 12 12 12 12 13 13 13 13 13 13 13 13 13 13 13 13 13 13
15 15 15 14 14 14 14 14 13 13 13 13 13 12 12 12 12 12 12 12 12 12 12 12 12 12 12 12 12 12 13 13 13 13 13 13 13 13 13 13 13 13 13
15 15 15 14 14 14 14 14 13 13 13 13 13 12 12 12 12 12 12 12 12 12 12 12 12 12 12 12 12 12 12 12 13 13 13 13 13 13 13 13 13 13 13
15 15 15 14 14 14 14 14 14 13 13 13 13 13 12 12 12 12 12 12 12 12 12 12 12 12 12 12 12 12 12 12 12 12 12 12 12 13 13 13 12 12 12
15 15 15 14 14 14 14 14 14 14 13 13 13 13 13 13 12 12 12 12 12 12 12 12 12 12 12 12 12 12 12 12 12 12 12 12 12 12 12 12 12 12 12
15 15 15 14 14 14 14 14 14 14 13 13 13 13 13 13 13 12 12 12 12 12 12 12 12 12 12 12 12 12 12 12 12 12 12 12 12 12 12 12 12 12 12
15 15 14 14 14 14 14 13 13 13 13 13 13 13 13 13 13 12 12 12 12 12 12 12 12 12 12 12 12 11 11 11 11 11 11 11 11 12 12 12 11 11 11
15 14 14 14 13 13 13 13 13 13 13 13 13 13 13 13 13 13 12 12 12 12 11 12 11 11 11 11 11 11 11 11 11 11 11 11 11 11 11 11 11 11 11
14 13 13 13 13 12 12 12 13 13 13 13 13 12 12 13 13 13 12 12 12 12 11 11 11 11 11 11 11 11 11 11 11 11 11 11 11 11 11 11 11 11 11
13 13 12 12 12 12 11 11 11 12 12 12 12 12 12 12 12 12 12 12 12 12 11 11 11 11 11 11 11 11 11 11 11 11 11 11 11 11 11 11 11 11 11
12 12 11 11 11 11 11 11 11 11 11 11 11 12 12 12 12 12 12 12 11 11 11 11 11 11 11 10 10 11 11 11 10 10 10 10 10 10 10 10 11 10 10
11 11 10 10 10 10 10 10 10 10 10 10 10 10 10 11 11 11 11 10 10 10 10 10 10 10 10 10 10 10 10 10 10 10 10 10 10 10 10 10 10 10 10
10 10 10 10 9 9 9 9 9 9 9 9 9 9 9 9 9 9 9 9 9 9 9 9 10 10 9 9 10 10 10 10 10 10 10 10 10 10 10 10 10 10 10
10 9 9 9 9 8 8 8 8 8 8 8 8 8 8 8 8 8 8 8 8 8 8 8 9 9 9 9 9 9 9 9 9 9 9 10 10 10 10 10 10 10 10
9 9 8 8 8 8 8 7 7 7 7 7 7 7 7 7 7 7 7 7 7 7 7 7 8 8 8 8 8 8 8 8 8 9 9 9 9 9 9 9 9 9 10
8 8 8 7 7 7 7 7 7 6 6 6 6 6 6 6 6 6 6 6 6 6 6 6 7 7 7 7 7 7 7 7 7 8 8 8 8 9 9 9 9 9 9
8 7 7 7 6 6 6 6 6 6 5 5 5 5 5 5 5 5 5 5 5 5 5 6 6 6 6 6 6 6 7 7 7 7 7 8 8 8 8 8 9 9 9
7 7 6 6 6 6 6 5 5 5 5 5 5 4 4 4 4 4 4 4 4 4 5 5 5 5 5 5 5 6 6 6 6 6 7 7 7 7 7 8 8 8 8
Wind_Speed
1 0 1 2 2 3 4 4 5 4 5 6 6 5 4 4 3 2 2 2 1 2 2 2 3 3 3 3 3 3 4 4 4 3 2 3 5 6 6 7 10 11 13
2 1 0 1 2 3 4 5 4 5 5 5 5 5 4 4 3 2 2 2 2 2 2 2 3 3 4 3 4 4 4 4 4 4 2 3 4 6 7 6 5 8 9
2 2 0 1 2 3 4 4 4 5 5 5 5 5 4 4 3 3 2 2 2 2 2 2 2 3 4 3 4 4 4 4 4 4 3 2 2 4 5 5 5 4 6
3 2 1 1 2 2 3 4 4 4 5 5 5 5 5 4 4 3 3 2 2 2 2 2 2 3 4 4 4 4 4 3 3 4 3 3 3 4 5 5 4 3 4
3 2 2 2 1 2 3 4 4 4 4 4 5 5 5 4 4 4 4 3 3 3 3 3 3 3 5 5 4 4 5 4 4 4 4 3 3 5 6 5 5 4 3
3 2 2 1 1 2 3 3 4 4 5 5 5 5 5 5 6 6 4 3 3 2 3 4 4 2 3 4 5 6 7 6 6 5 4 5 5 5 5 6 5 5 4
3 2 2 1 2 2 3 3 3 4 4 5 5 5 5 7 8 7 6 3 3 2 3 3 3 2 1 0 2 3 4 6 7 6 7 7 6 6 7 7 7 6 4
3 3 3 2 2 3 2 3 3 3 3 3 4 5 5 6 8 7 6 4 3 3 3 2 2 3 1 0 1 1 1 2 4 4 6 6 6 6 8 7 7 5 2
3 4 4 3 3 3 3 4 3 2 3 3 3 4 4 6 8 7 5 3 3 4 4 4 3 2 3 1 0 1 2 3 3 4 5 5 7 8 8 6 6 6 4
4 4 4 3 3 4 4 4 3 2 3 3 4 4 4 5 7 6 4 2 3 4 4 4 5 5 5 2 1 2 3 3 2 2 2 2 4 6 9 8 8 7 4
3 3 3 3 4 4 4 3 3 3 3 3 4 4 4 5 6 6 3 1 1 3 3 4 4 7 6 4 2 2 4 3 2 2 2 2 2 3 4 5 6 7 6
1 1 2 3 4 3 3 4 3 3 3 4 4 5 4 4 4 4 4 1 1 1 3 3 4 7 7 6 3 3 3 1 2 2 2 3 3 3 3 4 5 5 5
0 1 2 3 3 3 3 4 3 3 3 4 3 4 5 4 4 5 4 3 2 1 3 5 6 7 6 4 4 3 1 1 1 2 3 3 3 3 3 2 2 2 2
1 2 3 3 4 4 3 3 3 3 3 4 4 4 5 4 4 3 3 3 3 2 3 5 7 6 4 4 4 3 1 2 2 3 3 2 2 2 3 3 3 3 2
1 2 3 3 3 4 4 3 3 3 3 3 4 4 4 5 6 6 4 3 3 3 2 2 3 3 4 3 3 3 2 1 2 2 2 2 3 3 3 3 3 3 3
2 3 3 3 3 3 4 5 5 5 6 5 4 3 4 6 8 6 6 6 5 4 1 2 3 3 3 4 4 3 3 2 2 2 2 3 4 4 3 3 3 4 5
2 2 2 3 3 3 3 4 5 7 7 7 7 7 6 7 6 6 6 5 5 2 1 3 4 4 5 4 4 4 4 4 3 3 3 4 4 4 4 4 4 4 4
3 4 3 3 3 3 3 3 3 4 6 6 7 8 8 7 6 6 5 3 3 2 2 4 5 5 5 5 5 5 4 4 3 4 4 4 4 4 4 5 5 5 4
3 3 3 3 3 3 3 3 4 4 4 5 6 8 9 7 5 6 4 2 3 4 4 4 5 5 5 5 5 5 5 4 4 4 4 5 5 5 5 5 6 7 6
3 7 5 3 4 4 4 4 4 5 5 5 6 6 7 6 5 6 4 3 3 5 5 5 6 5 5 5 4 4 4 4 5 5 5 5 5 5 6 7 6 6 6
3 4 7 5 4 4 4 5 4 4 5 5 5 7 8 5 5 5 5 4 4 5 5 5 5 5 5 5 4 4 4 4 4 5 5 5 5 6 6 6 7 7 6
3 3 3 3 3 4 4 4 4 5 5 6 5 7 8 5 5 5 5 5 5 4 5 5 5 5 5 5 5 4 5 5 5 5 5 6 6 6 6 6 7 7 7
4 4 4 3 3 4 4 4 4 4 4 5 5 5 6 5 5 5 6 6 6 5 5 5 5 6 5 5 4 4 5 6 6 6 6 6 6 7 6 7 8 8 8
4 4 3 3 3 3 4 4 4 4 4 4 5 5 5 5 5 6 6 6 5 5 5 5 5 7 9 7 5 5 6 7 7 6 7 7 7 7 7 7 8 9 9
3 3 2 2 2 3 3 4 4 4 4 4 4 5 5 5 5 5 6 6 6 6 7 7 5 6 9 10 9 9 11 12 11 9 7 7 8 8 8 8 8 8 8
2 2 2 1 2 2 2 3 3 4 4 4 4 4 5 5 5 6 6 6 6 7 7 7 8 10 11 10 12 14 15 15 14 13 9 7 7 8 8 8 9 9 9
Wind_Direction
193 204 18 333 327 331 333 327 325 328 333 338 340 340 343 343 338 337 321 318 296 283 266 232 235 224 220 213 199 195 193 186 213 231 213 181 180 176 166 168 174 179 189
192 167 351 331 342 343 335 331 336 339 338 340 346 353 353 353 349 354 334 333 318 303 282 254 246 228 220 215 201 203 202 198 197 209 206 189 189 177 169 168 170 179 183
172 153 37 348 350 340 330 331 339 341 343 348 357 356 349 346 346 342 328 320 313 299 289 272 252 224 224 219 210 208 208 205 189 188 200 193 183 166 160 165 167 169 180
166 158 202 284 304 320 327 336 339 341 348 347 347 344 341 339 338 336 336 331 330 320 307 283 260 226 221 214 209 207 203 197 187 181 183 181 179 167 162 166 169 170 180
162 179 227 255 292 324 335 337 340 345 348 343 346 347 345 344 347 349 346 348 340 332 330 317 290 252 233 220 212 202 195 193 186 186 186 185 183 174 180 175 178 168 175
163 194 227 258 298 309 315 331 343 342 340 346 349 345 345 347 351 357 358 349 338 336 334 330 313 291 260 244 234 212 199 194 194 193 199 198 198 189 180 174 169 172 189
174 199 214 232 273 289 307 334 333 327 334 340 343 345 339 333 346 356 359 359 350 338 330 332 335 337 342 296 245 229 218 210 206 197 200 206 198 189 178 181 184 185 191
188 211 222 227 259 283 304 309 309 311 320 324 329 334 333 332 347 353 358 7 358 348 340 332 330 330 340 18 213 224 243 239 230 215 208 212 207 194 189 188 182 164 118
207 223 227 222 241 269 282 285 285 294 308 309 309 323 328 324 338 351 9 5 359 350 347 348 343 324 316 311 207 238 262 269 256 233 220 213 200 192 183 171 171 174 185
230 233 232 222 229 248 262 271 271 265 277 294 309 307 308 311 326 345 1 15 1 347 343 344 349 344 331 298 224 230 246 253 246 251 232 216 200 196 192 194 189 188 178
242 237 244 242 241 247 261 272 274 275 292 301 303 304 305 303 316 331 347 28 334 338 339 335 331 339 335 320 282 239 246 245 221 211 214 208 193 193 198 198 195 192 190
215 249 273 272 272 270 267 281 286 281 286 294 301 304 301 300 300 313 325 318 282 310 312 314 316 329 332 329 311 267 265 247 195 195 202 206 205 207 202 198 198 203 202
87 306 300 305 301 297 278 281 291 287 277 283 285 288 292 295 295 301 308 311 307 277 286 304 316 325 331 332 326 318 313 197 200 215 219 223 211 199 182 177 184 184 187
57 325 321 320 315 315 306 295 291 288 282 282 284 282 285 291 287 286 291 301 310 313 311 317 326 333 331 314 318 325 307 241 224 233 233 220 193 186 190 187 190 185 185
31 350 341 334 323 320 316 293 281 269 254 256 266 263 273 289 281 257 240 253 260 269 304 328 341 340 339 331 324 319 314 293 246 233 226 219 207 203 204 192 188 186 198
31 355 345 341 336 335 333 332 317 305 311 302 294 288 274 276 291 286 269 264 265 272 279 297 296 295 292 292 295 299 292 275 258 240 230 225 221 214 210 197 194 202 211
39 1 354 353 350 346 345 342 336 338 341 334 327 320 307 311 313 302 294 291 294 283 269 279 279 277 275 274 270 265 265 261 250 240 236 232 225 216 209 209 205 209 217
28 20 18 356 349 347 345 341 341 347 350 347 338 333 326 319 321 324 324 346 334 330 279 281 283 281 274 270 268 264 262 259 247 241 238 235 227 219 217 217 212 211 214
30 14 12 3 1 358 355 356 358 357 353 345 349 354 346 336 340 350 8 10 316 312 307 298 294 292 286 277 271 264 258 255 250 242 240 237 231 223 224 222 217 214 213
27 33 42 28 17 15 14 13 8 5 3 2 1 356 359 16 17 6 5 348 325 315 313 309 306 304 302 297 290 282 273 264 258 252 250 246 238 229 228 225 220 217 217
33 26 36 39 29 25 24 19 13 11 8 2 355 356 10 19 8 1 359 351 338 328 322 316 312 310 304 299 296 289 282 277 266 256 253 250 245 241 236 229 225 221 218
46 38 35 33 26 26 21 15 16 15 11 6 358 2 7 15 8 3 357 348 338 333 333 335 334 333 328 318 312 306 297 289 286 277 263 253 247 245 241 235 229 225 220
52 44 37 29 27 22 21 11 9 8 5 2 2 5 8 6 359 355 352 348 345 341 339 341 338 333 329 332 330 323 318 309 295 284 280 269 255 245 239 238 235 231 227
55 48 41 30 29 27 18 8 2 0 359 360 0 0 359 357 353 350 344 339 338 337 334 331 325 325 326 325 323 318 310 309 311 296 278 273 267 256 243 239 237 236 234
55 49 44 37 31 22 15 8 3 1 0 359 357 355 349 346 344 341 339 337 336 334 332 328 324 320 319 319 319 317 315 309 305 307 291 273 268 265 257 246 240 237 235
52 48 39 27 18 11 7 359 355 354 353 352 349 343 339 338 337 334 334 336 334 331 328 327 329 327 322 321 318 315 314 315 309 303 295 282 274 270 266 257 246 239 234
Height
1505 1503 1501 1498 1496 1493 1490 1487 1484 1481 1477 1474 1471 1468 1466 1464 1463 1462 1462 1463 1464 1465 1466 1467 1468 1470 1471 1473 1475 1477 1479 1481 1483 1484 1487 1489 1492 1494 1497 1500 1503 1505 1508
1504 1502 1500 1498 1496 1493 1490 1487 1484 1481 1477 1474 1471 1468 1466 1464 1463 1462 1461 1462 1462 1463 1463 1464 1465 1467 1468 1470 1472 1473 1476 1478 1480 1481 1483 1485 1488 1490 1493 1496 1499 1501 1504
1503 1502 1500 1498 1495 1493 1490 1487 1484 1481 1478 1475 1472 1469 1467 1465 1463 1462 1461 1461 1461 1461 1461 1462 1463 1464 1465 1467 1469 1470 1472 1474 1476 1478 1480 1482 1484 1487 1489 1492 1495 1498 1500
1503 1501 1499 1497 1495 1493 1490 1488 1485 1482 1478 1476 1473 1470 1468 1466 1464 1462 1461 1460 1460 1460 1460 1460 1461 1462 1463 1464 1466 1467 1469 1471 1473 1475 1477 1479 1481 1483 1486 1488 1491 1494 1496
1502 1501 1499 1497 1495 1493 1490 1488 1485 1482 1479 1477 1474 1471 1469 1467 1464 1462 1461 1460 1459 1459 1459 1459 1459 1460 1460 1462 1463 1465 1466 1468 1470 1471 1473 1475 1477 1480 1482 1485 1487 1490 1493
1501 1500 1498 1497 1495 1493 1490 1488 1486 1483 1480 1478 1475 1472 1470 1468 1466 1464 1462 1460 1459 1458 1458 1458 1458 1458 1459 1459 1461 1462 1464 1465 1466 1468 1470 1471 1473 1476 1478 1481 1483 1486 1488
1500 1499 1498 1496 1494 1492 1490 1488 1486 1483 1481 1478 1476 1473 1471 1469 1467 1465 1463 1461 1459 1458 1457 1457 1457 1457 1457 1458 1458 1459 1461 1462 1464 1465 1466 1468 1470 1472 1475 1477 1479 1481 1483
1499 1498 1497 1495 1494 1492 1490 1488 1486 1484 1481 1479 1477 1474 1472 1470 1468 1466 1463 1461 1460 1458 1457 1457 1456 1456 1456 1457 1457 1457 1458 1459 1460 1462 1463 1465 1467 1469 1471 1473 1475 1478 1480
1498 1497 1496 1494 1493 1491 1489 1487 1486 1484 1482 1479 1477 1475 1472 1470 1468 1466 1464 1462 1460 1459 1457 1456 1456 1456 1456 1455 1455 1455 1456 1457 1458 1459 1460 1461 1463 1465 1467 1470 1472 1474 1475
1497 1496 1495 1494 1492 1490 1488 1487 1485 1483 1481 1479 1477 1475 1473 1470 1468 1466 1465 1462 1460 1459 1458 1457 1456 1455 1455 1454 1454 1454 1454 1454 1455 1456 1457 1458 1460 1462 1463 1465 1468 1470 1471
1496 1495 1494 1492 1491 1489 1487 1486 1484 1482 1481 1479 1477 1475 1473 1470 1468 1466 1465 1463 1461 1459 1458 1456 1455 1455 1454 1453 1452 1452 1452 1452 1452 1453 1454 1455 1457 1458 1460 1461 1463 1465 1467
1494 1493 1492 1491 1489 1488 1486 1484 1483 1481 1479 1478 1476 1474 1472 1470 1468 1466 1464 1463 1461 1459 1458 1456 1455 1454 1453 1452 1451 1451 1451 1450 1451 1451 1452 1453 1454 1455 1456 1458 1460 1461 1463
1492 1491 1490 1489 1488 1486 1484 1482 1481 1479 1477 1476 1474 1472 1470 1469 1467 1465 1464 1462 1460 1459 1457 1456 1455 1453 1452 1451 1450 1450 1449 1449 1449 1449 1449 1450 1451 1452 1454 1455 1456 1458 1459
1490 1489 1488 1487 1485 1484 1482 1480 1479 1477 1475 1474 1472 1470 1468 1467 1465 1464 1462 1461 1459 1458 1456 1455 1454 1452 1451 1450 1449 1449 1448 1448 1447 1447 1447 1448 1449 1449 1450 1451 1452 1453 1455
1488 1487 1486 1484 1483 1481 1480 1478 1477 1475 1474 1472 1470 1469 1467 1465 1464 1462 1460 1459 1458 1456 1455 1454 1452 1451 1450 1449 1448 1447 1447 1446 1446 1445 1445 1445 1446 1446 1447 1448 1449 1450 1451
1486 1485 1484 1482 1481 1479 1477 1476 1475 1473 1472 1470 1468 1467 1465 1463 1461 1460 1458 1457 1456 1455 1453 1452 1451 1450 1448 1447 1446 1445 1445 1444 1444 1443 1443 1443 1443 1443 1444 1445 1446 1447 1447
1484 1483 1482 1480 1478 1477 1475 1473 1472 1471 1469 1468 1466 1464 1462 1461 1459 1458 1456 1455 1454 1452 1451 1450 1449 1448 1447 1446 1445 1444 1443 1442 1441 1441 1440 1440 1440 1440 1441 1441 1442 1443 1443
1482 1481 1480 1478 1476 1475 1473 1471 1469 1468 1466 1464 1463 1461 1460 1458 1457 1455 1454 1453 1451 1450 1449 1448 1446 1445 1444 1443 1442 1441 1440 1439 1439 1438 1438 1437 1437 1437 1437 1438 1438 1439 1439
1480 1479 1478 1476 1475 1473 1472 1470 1468 1466 1464 1462 1460 1459 1457 1456 1454 1453 1451 1450 1449 1448 1447 1445 1444 1443 1441 1440 1439 1438 1437 1436 1435 1435 1434 1434 1434 1434 1434 1434 1434 1435 1435
1478 1477 1476 1475 1473 1472 1470 1468 1466 1465 1463 1461 1459 1457 1455 1453 1451 1450 1449 1448 1446 1445 1444 1442 1441 1440 1438 1436 1435 1434 1433 1432 1431 1431 1430 1430 1430 1429 1429 1429 1430 1430 1430
1477 1476 1475 1473 1472 1470 1469 1467 1465 1464 1462 1460 1458 1456 1454 1452 1450 1449 1447 1446 1444 1442 1441 1439 1437 1436 1434 1433 1431 1430 1429 1427 1427 1426 1425 1425 1425 1424 1424 1425 1425 1425 1425
1475 1474 1473 1472 1471 1469 1468 1466 1465 1463 1461 1459 1457 1455 1453 1451 1449 1447 1445 1443 1442 1440 1438 1436 1434 1432 1430 1429 1427 1425 1424 1423 1422 1421 1420 1419 1419 1419 1419 1419 1419 1419 1420
1474 1473 1472 1471 1470 1468 1467 1465 1464 1462 1460 1458 1456 1453 1451 1449 1447 1445 1443 1441 1439 1437 1435 1433 1430 1428 1426 1425 1423 1421 1420 1418 1417 1415 1414 1413 1413 1412 1412 1412 1413 1413 1414
1472 1472 1471 1470 1468 1467 1465 1464 1462 1461 1459 1457 1454 1452 1450 1447 1445 1443 1441 1438 1436 1434 1431 1429 1427 1424 1422 1420 1418 1416 1415 1413 1411 1410 1409 1407 1406 1406 1405 1405 1405 1406 1407
1471 1470 1469 1468 1467 1466 1464 1463 1461 1459 1457 1455 1453 1451 1448 1446 1443 1441 1438 1435 1433 1430 1427 1425 1422 1420 1417 1415 1412 1410 1408 1406 1405 1403 1402 1401 1400 1399 1398 1398 1398 1398 1399
1470 1469 1468 1467 1465 1464 1463 1461 1459 1457 1456 1453 1451 1449 1446 1444 1441 1438 1435 1432 1429 1426 1423 1420 1417 1414 1411 1408 1405 1403 1401 1399 1397 1396 1394 1393 1392 1391 1390 1390 1390 1390 1391